{"data":{"norad_id":59494,"epoch":"2026-09-21T10:25:56.100576Z","epoch_age_seconds":84147,"freshness":"FRESH","line1":"1 59494U 24071L   26264.43467709 -.00000111  00000+0  54833-5 0  9996","line2":"2 59494  43.0024 321.9426 0001324 269.8872  90.1828 15.27575924138057","mean_motion":15.27575924,"eccentricity":0.0001324,"inclination_deg":43.0024,"raan_deg":321.9426,"arg_perigee_deg":269.8872,"mean_anomaly_deg":90.1828,"bstar":5.4833e-6,"rev_number":13805,"period_min":94.267000243714,"perigee_km":482.15287842206,"apogee_km":483.96972373219,"semimajor_km":6861.1983010771,"source":"CELESTRAK","updated_at":"2026-09-22T09:00:48.957759Z"}}